Weather History for K7BM - July, 2013

Change the Weather History Date:

Friday, July 12, 2013

  Actual Average Record
Temperature  
Mean Temperature 64 °F -  
Max Temperature 68 °F - - ()
Min Temperature 60 °F - - ()
Degree Days  
Heating Degree Days 1    
Growing Degree Days 14 (Base 50)    
Moisture  
Dew Point 43 °F    
Average Humidity 48    
Maximum Humidity 59    
Minimum Humidity 37    
Precipitation  
Precipitation 0.00 in - - ()
Sea Level Pressure  
Sea Level Pressure 30.44 in    
Wind  
Wind Speed 11 mph (WNW)    
Max Wind Speed 18 mph    
Max Gust Speed 30 mph    
Visibility 10 miles    
Events Rain , Thunderstorm    
T = Trace of Precipitation, MM = Missing Value Source: NWS Daily Summary

Daily Weather History Graph

Daily Weather History Graph

Search for Another Location

Airport or City:

Trip Planner

Search our weather history database for the weather conditions in past years. The results will help you decide how hot, cold, wet, or windy it might be!

Date:

Astronomy

Jul. 12, 2013 Rise Set
Actual Time 5:50 AM MDT 8:30 PM MDT
Civil Twilight 5:19 AM MDT 9:01 PM MDT
Nautical Twilight 4:39 AM MDT 9:40 PM MDT
Astronomical Twilight 3:55 AM MDT 10:24 PM MDT
Moon 10:06 AM MDT (7/12) 10:45 PM MDT (7/12)
Length of Visible Light 15h 42m
Length of Day
14h 40m
Waxing Crescent, 18% of the Moon is Illuminated
Jul 12
Waxing Crescent
Jul 15
First Quarter
Jul 22
Full
Jul 29
Last Quarter
Aug 6
New

Hourly Weather History & Observations

Time (MDT) Temp. Dew Point Humidity Pressure Visibility Wind Dir Wind Speed Gust Speed Precip Events Conditions
3:33 PM - - N/A% 30.42 in - NW 11.5 mph - N/A   Unknown
3:54 PM 64.4 °F 44.6 °F 49% 30.43 in 10.0 mi West 16.1 mph 24.2 mph N/A Thunderstorm Scattered Clouds
4:14 PM 66.2 °F 44.6 °F 46% 30.42 in 10.0 mi WNW 11.5 mph 25.3 mph N/A   Mostly Cloudy
4:34 PM 66.2 °F 42.8 °F 43% 30.42 in 10.0 mi WNW 13.8 mph 21.9 mph N/A Thunderstorm Mostly Cloudy
4:54 PM 66.2 °F 42.8 °F 43% 30.42 in 10.0 mi West 12.7 mph 19.6 mph N/A   Overcast
5:14 PM 68.0 °F 41.0 °F 37% 30.42 in 10.0 mi WNW 16.1 mph 24.2 mph N/A   Mostly Cloudy
5:34 PM 66.2 °F 41.0 °F 40% 30.42 in 10.0 mi West 18.4 mph 29.9 mph N/A Thunderstorm Overcast
5:54 PM 66.2 °F 42.8 °F 43% 30.42 in 10.0 mi West 15.0 mph 24.2 mph N/A Thunderstorm Thunderstorm
6:14 PM 64.4 °F 42.8 °F 45% 30.42 in 10.0 mi NNW 9.2 mph 24.2 mph N/A   Overcast
6:34 PM 62.6 °F 44.6 °F 52% 30.44 in 10.0 mi NW 9.2 mph 19.6 mph N/A   Overcast
6:54 PM 62.6 °F 44.6 °F 52% 30.46 in 10.0 mi West 15.0 mph 21.9 mph N/A   Overcast
7:14 PM 62.6 °F 44.6 °F 52% 30.46 in 10.0 mi WNW 5.8 mph 16.1 mph N/A Rain Light Rain
7:34 PM 60.8 °F 46.4 °F 59% 30.44 in 10.0 mi North 8.1 mph - N/A Rain Light Rain
7:53 PM 62.6 °F 42.8 °F 48% 30.45 in 10.0 mi West 12.7 mph 25.3 mph N/A   Mostly Cloudy
8:14 PM 62.6 °F 42.8 °F 48% 30.45 in 10.0 mi WNW 10.4 mph 18.4 mph N/A   Scattered Clouds
8:34 PM 60.8 °F 42.8 °F 52% 30.45 in 10.0 mi North 5.8 mph - N/A   Scattered Clouds
8:54 PM 60.8 °F 42.8 °F 52% 30.45 in 10.0 mi West 4.6 mph - N/A   Overcast
9:14 PM 60.8 °F 42.8 °F 52% 30.44 in 10.0 mi West 5.8 mph - N/A   Mostly Cloudy
9:34 PM 60.8 °F 42.8 °F 52% 30.44 in 10.0 mi Calm Calm - N/A   Scattered Clouds
9:54 PM 60.8 °F 42.8 °F 52% 30.45 in 10.0 mi West 11.5 mph 17.3 mph N/A   Clear
10:14 PM 60.8 °F 42.8 °F 52% 30.45 in 10.0 mi West 9.2 mph - N/A   Clear
10:34 PM 60.8 °F 41.0 °F 48% 30.46 in 10.0 mi West 10.4 mph - N/A   Clear
10:54 PM 60.8 °F 41.0 °F 48% 30.46 in 10.0 mi West 10.4 mph - N/A   Scattered Clouds
11:14 PM 60.8 °F 41.0 °F 48% 30.46 in 10.0 mi West 6.9 mph - N/A   Mostly Cloudy
11:33 PM 62.6 °F 41.0 °F 45% 30.46 in 10.0 mi SW 4.6 mph - N/A   Scattered Clouds
11:54 PM 60.8 °F 41.0 °F 48% 30.46 in 10.0 mi West 4.6 mph - N/A   Scattered Clouds